Wiley Ford, WV

1:24 PM EDT on July 24, 2016 (GMT -0400)
Greater Cumberland Regional

Weather History for KCBE - October, 2011

Change the Weather History Date:

Saturday, October 15, 2011

  Actual Average (KMRB) Record (KMRB)
Temperature  
Mean Temperature 58 °F 54 °F  
Max Temperature 64 °F 66 °F 86 °F (1941)
Min Temperature 51 °F 42 °F 27 °F (1987)
Degree Days  
Heating Degree Days 8 11  
Month to date heating degree days 135  
Since 1 July heating degree days 226  
Cooling Degree Days 0 0  
Month to date cooling degree days 8  
Year to date cooling degree days 893  
Growing Degree Days 8 (Base 50)    
Moisture  
Dew Point 39 °F    
Average Humidity 53    
Maximum Humidity 82    
Minimum Humidity 30    
Precipitation  
Precipitation 0.00 in 0.09 in 4.15 in (1942)
Month to date precipitation 1.51  
Year to date precipitation 31.32  
Sea Level Pressure  
Sea Level Pressure 29.75 in    
Wind  
Wind Speed 13 mph (SW)    
Max Wind Speed 25 mph    
Max Gust Speed 43 mph    
Visibility 10 miles    
Events      
T = Trace of Precipitation, MM = Missing Value Source: NWS Daily Summary

Daily Weather History Graph

Daily Weather History Graph

Search for Another Location

Airport or City:

Trip Planner

Search our weather history database for the weather conditions in past years. The results will help you decide how hot, cold, wet, or windy it might be!

Date:

Astronomy

Oct. 15, 2011 Rise Set
Actual Time 7:24 AM EDT 6:36 PM EDT
Civil Twilight 6:57 AM EDT 7:03 PM EDT
Nautical Twilight 6:26 AM EDT 7:34 PM EDT
Astronomical Twilight 5:55 AM EDT 8:05 PM EDT
Moon 8:32 PM EDT (10/15) 10:46 AM EDT (10/15)
Length of Visible Light 12h 05m
Length of Day
11h 11m
Waning Gibbous, 89% of the Moon is Illuminated
Oct 15
Waning Gibbous
Oct 19
Last Quarter
Oct 26
New
Nov 2
First Quarter
Nov 10
Full

Hourly Weather History & Observations

Time (EDT) Temp. Dew Point Humidity Pressure Visibility Wind Dir Wind Speed Gust Speed Precip Events Conditions
12:05 AM 55.4 °F 42.8 °F 63% 29.70 in 10.0 mi SW 12.7 mph 26.5 mph N/A   Clear
12:26 AM 55.4 °F 42.8 °F 63% 29.70 in 10.0 mi South 10.4 mph 24.2 mph N/A   Clear
12:48 AM 55.4 °F 42.8 °F 63% 29.70 in 10.0 mi SW 15.0 mph 21.9 mph N/A   Clear
1:09 AM 55.4 °F 42.8 °F 63% 29.70 in 10.0 mi WSW 10.4 mph 20.7 mph N/A   Clear
1:30 AM 53.6 °F 42.8 °F 67% 29.71 in 10.0 mi WSW 8.1 mph 17.3 mph N/A   Clear
1:52 AM 53.6 °F 42.8 °F 67% 29.71 in 10.0 mi WSW 10.4 mph 20.7 mph N/A   Clear
2:13 AM 53.6 °F 42.8 °F 67% 29.71 in 10.0 mi SW 6.9 mph - N/A   Clear
2:34 AM 53.6 °F 44.6 °F 72% 29.74 in 10.0 mi SSW 19.6 mph 29.9 mph N/A   Scattered Clouds
2:56 AM 51.8 °F 46.4 °F 82% 29.73 in 10.0 mi WSW 12.7 mph 25.3 mph N/A   Mostly Cloudy
3:17 AM 51.8 °F 44.6 °F 76% 29.74 in 10.0 mi WSW 4.6 mph 19.6 mph N/A   Scattered Clouds
3:38 AM 51.8 °F 42.8 °F 71% 29.72 in 10.0 mi SW 20.7 mph 33.4 mph N/A   Scattered Clouds
4:00 AM 51.8 °F 42.8 °F 71% 29.73 in 10.0 mi WSW 12.7 mph 24.2 mph N/A   Clear
4:21 AM 51.8 °F 42.8 °F 71% 29.72 in 10.0 mi SSW 15.0 mph 21.9 mph N/A   Clear
4:42 AM 51.8 °F 42.8 °F 71% 29.73 in 10.0 mi SW 11.5 mph 25.3 mph N/A   Clear
5:04 AM 51.8 °F 42.8 °F 71% 29.73 in 10.0 mi WSW 17.3 mph 25.3 mph N/A   Clear
5:25 AM 51.8 °F 42.8 °F 71% 29.73 in 10.0 mi SW 11.5 mph 25.3 mph N/A   Clear
5:47 AM 53.6 °F 42.8 °F 67% 29.74 in 10.0 mi WSW 18.4 mph 29.9 mph N/A   Clear
6:08 AM 53.6 °F 42.8 °F 67% 29.74 in 10.0 mi SW 12.7 mph 28.8 mph N/A   Clear
6:29 AM 51.8 °F 42.8 °F 71% 29.75 in 10.0 mi WSW 15.0 mph 23.0 mph N/A   Clear
6:50 AM 51.8 °F 42.8 °F 71% 29.75 in 10.0 mi SW 13.8 mph 28.8 mph N/A   Clear
7:12 AM 51.8 °F 42.8 °F 71% 29.75 in 10.0 mi SW 6.9 mph 21.9 mph N/A   Clear
7:33 AM 51.8 °F 42.8 °F 71% 29.75 in 10.0 mi West 13.8 mph 26.5 mph N/A   Clear
7:54 AM 51.8 °F 42.8 °F 71% 29.74 in 10.0 mi SSW 8.1 mph 29.9 mph N/A   Clear
8:16 AM 53.6 °F 42.8 °F 67% 29.75 in 10.0 mi WSW 10.4 mph 20.7 mph N/A   Clear
8:37 AM 53.6 °F 42.8 °F 67% 29.74 in 10.0 mi South 12.7 mph 25.3 mph N/A   Clear
8:58 AM 55.4 °F 42.8 °F 63% 29.75 in 10.0 mi SSW 9.2 mph 18.4 mph N/A   Clear
9:20 AM 55.4 °F 41.0 °F 58% 29.75 in 10.0 mi SW 16.1 mph 42.6 mph N/A   Clear
9:41 AM 55.4 °F 41.0 °F 58% 29.75 in 10.0 mi SW 23.0 mph 35.7 mph N/A   Scattered Clouds
10:02 AM 55.4 °F 41.0 °F 58% 29.76 in 10.0 mi WSW 12.7 mph 36.8 mph N/A   Scattered Clouds
10:23 AM 57.2 °F 41.0 °F 55% 29.76 in 10.0 mi WSW 15.0 mph 27.6 mph N/A   Scattered Clouds
10:45 AM 57.2 °F 39.2 °F 51% 29.76 in 10.0 mi SW 4.6 mph 28.8 mph N/A   Scattered Clouds
11:06 AM 59.0 °F 39.2 °F 48% 29.76 in 10.0 mi WSW 11.5 mph 20.7 mph N/A   Scattered Clouds
11:27 AM 59.0 °F 37.4 °F 45% 29.76 in 10.0 mi WSW 25.3 mph 38.0 mph N/A   Clear
11:49 AM 59.0 °F 37.4 °F 45% 29.76 in 10.0 mi West 18.4 mph 29.9 mph N/A   Clear
12:10 PM 60.8 °F 37.4 °F 42% 29.76 in 10.0 mi SSW 15.0 mph 27.6 mph N/A   Clear
12:31 PM 60.8 °F 35.6 °F 39% 29.76 in 10.0 mi WNW 18.4 mph 34.5 mph N/A   Clear
12:53 PM 60.8 °F 35.6 °F 39% 29.75 in 10.0 mi West 15.0 mph 41.4 mph N/A   Clear
1:14 PM 60.8 °F 35.6 °F 39% 29.75 in 10.0 mi WSW 16.1 mph 42.6 mph N/A   Clear
1:35 PM 62.6 °F 35.6 °F 37% 29.74 in 10.0 mi SW 8.1 mph 24.2 mph N/A   Clear
1:56 PM 62.6 °F 35.6 °F 37% 29.74 in 10.0 mi West 18.4 mph 38.0 mph N/A   Clear
2:18 PM 62.6 °F 35.6 °F 37% 29.74 in 10.0 mi West 11.5 mph 33.4 mph N/A   Clear
2:39 PM 62.6 °F 35.6 °F 37% 29.74 in 10.0 mi West 11.5 mph 28.8 mph N/A   Clear
3:00 PM 64.4 °F 35.6 °F 34% 29.74 in 10.0 mi WSW 20.7 mph 28.8 mph N/A   Clear
3:22 PM 64.4 °F 35.6 °F 34% 29.75 in 10.0 mi WSW 17.3 mph 31.1 mph N/A   Clear
3:43 PM 64.4 °F 33.8 °F 32% 29.75 in 10.0 mi WSW 19.6 mph 35.7 mph N/A   Clear
4:04 PM 64.4 °F 33.8 °F 32% 29.75 in 10.0 mi WSW 13.8 mph 38.0 mph N/A   Clear
4:26 PM 64.4 °F 33.8 °F 32% 29.75 in 10.0 mi SW 18.4 mph 34.5 mph N/A   Clear
4:47 PM 64.4 °F 32.0 °F 30% 29.77 in 10.0 mi WSW 21.9 mph 29.9 mph N/A   Clear
5:08 PM 64.4 °F 32.0 °F 30% 29.76 in 10.0 mi WSW 18.4 mph 34.5 mph N/A   Clear
5:29 PM 62.6 °F 32.0 °F 32% 29.77 in 10.0 mi WSW 16.1 mph 27.6 mph N/A   Clear
5:51 PM 62.6 °F 32.0 °F 32% 29.77 in 10.0 mi SW 16.1 mph 34.5 mph N/A   Clear
6:12 PM 62.6 °F 32.0 °F 32% 29.78 in 10.0 mi SSW 6.9 mph 27.6 mph N/A   Clear
6:33 PM 60.8 °F 32.0 °F 34% 29.79 in 10.0 mi SSW 12.7 mph 21.9 mph N/A   Clear
6:55 PM 60.8 °F 32.0 °F 34% 29.81 in 10.0 mi WSW 8.1 mph 23.0 mph N/A   Clear
7:16 PM 60.8 °F 32.0 °F 34% 29.82 in 10.0 mi SW 9.2 mph - N/A   Clear
7:37 PM 60.8 °F 32.0 °F 34% 29.82 in 10.0 mi WNW 16.1 mph 24.2 mph N/A   Clear
7:58 PM 60.8 °F 32.0 °F 34% 29.84 in 10.0 mi West 6.9 mph - N/A   Clear
8:20 PM 60.8 °F 32.0 °F 34% 29.85 in 10.0 mi West 8.1 mph 19.6 mph N/A   Clear
8:41 PM 60.8 °F 32.0 °F 34% 29.87 in 10.0 mi WSW 11.5 mph 19.6 mph N/A   Clear
9:02 PM 59.0 °F 32.0 °F 36% 29.87 in 10.0 mi WSW 11.5 mph 20.7 mph N/A   Clear
9:24 PM 59.0 °F 32.0 °F 36% 29.88 in 10.0 mi West 9.2 mph 20.7 mph N/A   Clear
9:45 PM 59.0 °F 32.0 °F 36% 29.89 in 10.0 mi WSW 8.1 mph 24.2 mph N/A   Clear
10:06 PM 59.0 °F 32.0 °F 36% 29.90 in 10.0 mi WNW 16.1 mph 24.2 mph N/A   Clear
10:28 PM 59.0 °F 32.0 °F 36% 29.91 in 10.0 mi West 10.4 mph 18.4 mph N/A   Clear
10:49 PM 59.0 °F 32.0 °F 36% 29.91 in 10.0 mi West 15.0 mph 23.0 mph N/A   Clear
11:10 PM 59.0 °F 32.0 °F 36% 29.92 in 10.0 mi West 23.0 mph 34.5 mph N/A   Clear
11:32 PM 59.0 °F 32.0 °F 36% 29.93 in 10.0 mi West 13.8 mph 21.9 mph N/A   Clear
11:53 PM 57.2 °F 32.0 °F 38% 29.94 in 10.0 mi West 11.5 mph 20.7 mph N/A   Clear